Date String (YYYY-MM-DD hh:mm:ss) UTC,Instrument flags,absolute air pressure of the measurement (hPa),sample flow rate (lpm),inlet stack bypass flow (lpm),air temperature of the measurement (°C),ambient temperature measured by the external sensor (°C),aerosol sample conditioner tube jacket temperature (°C),OPC LED temperature (°C),internal box temperature (°C),relative humidity of the measurement (%),span deviation,mass concentration of particles derived from Lorenz-Mie calculation of OPC scattering (μg/m³),mass concentration of particles derived from Lorenz-Mie calculation of OPC scattering (μg/m³),mass concentration of particles derived from Lorenz-Mie calculation of OPC scattering (μg/m³)
DateTimeUTC,F1_M11,P_M11,Q1_M11,Q2_M11,T1_M11,T2_M11,T3_M11,T4_M11,T5_M11,U1_M11,ZSPAN_M11,X0_M11,X2_M11,X1_M11
2023-08-09 12:00:00,SystemResetWarning,0830.9,5.00,000.00,029.8,028.6,000.0,038.5,031.4,25.7,0000.0,0011.19,0004.98,0004.40
2023-08-09 12:01:00,SystemResetWarning,0830.9,5.00,000.00,029.9,028.6,000.0,038.5,031.4,25.8,0000.0,0011.26,0004.97,0004.41
2023-08-09 12:02:00,SystemResetWarning,0830.9,5.00,000.00,029.9,028.6,000.0,038.5,031.4,25.8,0000.0,0011.33,0005.00,0004.43
2023-08-09 12:03:00,SystemResetWarning,0830.9,5.00,000.00,029.9,028.6,000.0,038.5,031.4,25.7,0000.0,0011.46,0005.03,0004.44
2023-08-09 12:04:00,SystemResetWarning,0830.9,5.00,000.00,029.9,028.6,000.0,038.5,031.4,25.7,0000.0,0012.54,0005.05,0004.44
2023-08-09 12:05:00,SystemResetWarning,0830.9,5.00,000.00,029.9,028.6,000.0,038.5,031.5,25.7,0000.0,0013.38,0005.06,0004.45
2023-08-09 12:06:00,SystemResetWarning,0830.9,5.00,000.00,029.9,028.6,000.0,038.5,031.4,25.5,0000.0,0013.49,0005.04,0004.44
2023-08-09 12:07:00,SystemResetWarning,0830.9,5.00,000.00,029.9,028.6,000.0,038.5,031.5,25.3,0000.0,0013.25,0005.07,0004.44
2023-08-09 12:08:00,SystemResetWarning,0830.9,5.00,000.00,029.9,028.6,000.0,038.5,031.5,25.2,0000.0,0012.96,0005.07,0004.44
2023-08-09 12:09:00,SystemResetWarning,0830.9,5.00,000.00,029.9,028.6,000.0,038.6,031.5,25.0,0000.0,0013.06,0005.09,0004.43
2023-08-09 12:10:00,SystemResetWarning,0830.9,5.00,000.00,029.9,028.6,000.0,038.6,031.5,25.0,0000.0,0012.24,0005.08,0004.43
2023-08-09 12:11:00,SystemResetWarning,0830.9,5.00,000.00,029.9,028.6,000.0,038.6,031.5,24.9,0000.0,0012.21,0005.08,0004.42
2023-08-09 12:12:00,SystemResetWarning,0830.9,5.00,000.00,029.9,028.6,000.0,038.6,031.5,24.7,0000.0,0012.09,0005.07,0004.42
2023-08-09 12:13:00,SystemResetWarning,0830.9,5.00,000.00,030.0,028.6,000.0,038.6,031.5,24.6,0000.0,0011.99,0005.09,0004.42
2023-08-09 12:14:00,SystemResetWarning,0830.9,5.00,000.00,030.0,028.6,000.0,038.6,031.5,24.5,0000.0,0011.61,0005.09,0004.41
2023-08-09 12:15:00,SystemResetWarning,0830.9,5.01,000.00,030.0,028.6,000.0,038.6,031.5,24.4,0000.0,0010.59,0005.09,0004.42
2023-08-09 12:16:00,SystemResetWarning,0830.9,5.01,000.00,030.0,028.6,000.0,038.6,031.5,24.4,0000.0,0009.64,0005.10,0004.42
2023-08-09 12:17:00,SystemResetWarning,0831.0,5.00,000.00,030.0,028.6,000.0,038.6,031.5,24.3,0000.0,0009.40,0005.13,0004.43
2023-08-09 12:18:00,SystemResetWarning,0831.0,5.00,000.00,030.0,028.6,000.0,038.6,031.5,24.3,0000.0,0009.00,0005.11,0004.44
2023-08-09 12:19:00,SystemResetWarning,0830.9,4.99,000.00,030.0,028.6,000.0,038.7,031.5,24.2,0000.0,0008.64,0005.10,0004.44
2023-08-09 12:20:00,SystemResetWarning,0831.0,4.99,000.00,030.0,028.6,000.0,038.7,031.5,24.1,0000.0,0008.72,0005.08,0004.44
2023-08-09 12:21:00,SystemResetWarning,0831.0,4.99,000.00,030.0,028.6,000.0,038.7,031.5,24.1,0000.0,0008.98,0005.10,0004.45
2023-08-09 12:22:00,SystemResetWarning,0830.9,5.01,000.00,030.0,028.6,000.0,038.7,031.6,24.0,0000.0,0008.94,0005.08,0004.44
2023-08-09 12:23:00,SystemResetWarning,0831.0,5.00,000.00,030.0,028.6,000.0,038.7,031.6,24.0,0000.0,0009.74,0005.11,0004.43
2023-08-09 12:24:00,SystemResetWarning,0831.0,5.00,000.00,030.0,028.7,000.0,038.7,031.6,24.0,0000.0,0009.90,0005.12,0004.43
2023-08-09 12:25:00,SystemResetWarning,0831.0,5.00,000.00,030.0,028.7,000.0,038.7,031.6,23.9,0000.0,0010.35,0005.10,0004.44
2023-08-09 12:26:00,SystemResetWarning,0831.0,5.00,000.00,030.1,028.7,000.0,038.7,031.6,23.8,0000.0,0010.27,0005.10,0004.43
2023-08-09 12:27:00,SystemResetWarning,0831.0,5.00,000.00,030.1,028.7,000.0,038.7,031.6,23.6,0000.0,0010.24,0005.10,0004.43
2023-08-09 12:28:00,SystemResetWarning,0831.1,5.00,000.00,030.1,028.7,000.0,038.7,031.6,23.3,0000.0,0010.19,0005.09,0004.44
2023-08-09 12:29:00,SystemResetWarning,0831.1,5.00,000.00,030.1,028.7,000.0,038.7,031.6,23.2,0000.0,0010.21,0005.10,0004.44
2023-08-09 12:30:00,SystemResetWarning,0831.1,5.00,000.00,030.1,028.7,000.0,038.7,031.6,23.2,0000.0,0010.11,0005.06,0004.43
2023-08-09 12:31:00,SystemResetWarning,0831.1,5.00,000.00,030.1,028.7,000.0,038.8,031.6,23.2,0000.0,0009.92,0005.07,0004.45
2023-08-09 12:32:00,SystemResetWarning,0831.1,5.01,000.00,030.1,028.7,000.0,038.8,031.6,23.3,0000.0,0009.65,0005.07,0004.45
2023-08-09 12:33:00,SystemResetWarning,0831.1,5.01,000.00,030.1,028.7,000.0,038.8,031.6,23.8,0000.0,0009.67,0005.08,0004.47
2023-08-09 12:34:00,SystemResetWarning,0831.1,5.00,000.00,030.1,028.7,000.0,038.8,031.6,23.8,0000.0,0009.07,0005.07,0004.47
2023-08-09 12:35:00,SystemResetWarning,0831.1,5.00,000.00,030.1,028.7,000.0,038.8,031.6,23.6,0000.0,0009.14,0005.06,0004.47
2023-08-09 12:36:00,SystemResetWarning,0831.1,5.01,000.00,030.1,028.7,000.0,038.8,031.6,23.5,0000.0,0008.92,0005.05,0004.48
2023-08-09 12:37:00,SystemResetWarning,0831.1,5.00,000.00,030.1,028.7,000.0,038.8,031.6,23.4,0000.0,0009.40,0005.03,0004.48
2023-08-09 12:38:00,SystemResetWarning,0831.1,5.00,000.00,030.1,028.7,000.0,038.8,031.7,23.3,0000.0,0010.04,0005.06,0004.50
2023-08-09 12:39:00,SystemResetWarning,0831.1,5.00,000.00,030.1,028.7,000.0,038.8,031.6,23.2,0000.0,0010.07,0005.05,0004.50
2023-08-09 12:40:00,SystemResetWarning,0831.1,5.00,000.00,030.1,028.7,000.0,038.8,031.7,23.1,0000.0,0010.14,0005.05,0004.51
2023-08-09 12:41:00,SystemResetWarning,0831.1,4.98,000.00,030.1,028.2,000.0,038.8,031.6,23.1,0000.0,0010.24,0005.08,0004.52
2023-08-09 12:42:00,SystemResetWarning,0831.2,5.00,000.00,030.1,026.2,000.0,038.6,031.4,23.1,0000.0,0010.12,0005.07,0004.52
2023-08-09 12:43:00,SystemResetWarning,0831.2,5.01,000.00,030.0,025.5,000.0,038.5,031.2,23.2,0000.0,0010.33,0005.09,0004.53
2023-08-09 12:44:00,SystemResetWarning,0831.1,5.01,000.00,029.9,025.6,000.0,038.5,030.8,23.4,0000.0,0010.34,0005.07,0004.53
2023-08-09 12:45:00,SystemResetWarning,0831.1,5.00,000.00,029.7,025.9,000.0,038.5,030.9,23.6,0000.0,0010.15,0005.07,0004.54
2023-08-09 12:46:00,SystemResetWarning,0831.2,4.99,000.00,029.7,026.3,000.0,038.5,031.0,23.7,0000.0,0009.87,0005.08,0004.55
2023-08-09 12:47:00,SystemResetWarning,0831.2,5.00,000.00,029.7,026.7,000.0,038.5,031.0,23.8,0000.0,0009.67,0005.07,0004.55
2023-08-09 12:48:00,SystemResetWarning,0831.2,5.00,000.00,029.7,027.0,000.0,038.5,031.1,23.9,0000.0,0009.38,0005.11,0004.56
2023-08-09 12:49:00,SystemResetWarning,0831.2,4.99,000.00,029.7,027.3,000.0,038.5,031.1,23.8,0000.0,0008.86,0005.11,0004.55
2023-08-09 12:50:00,SystemResetWarning,0831.2,4.99,000.00,029.7,027.5,000.0,038.5,031.1,23.8,0000.0,0008.82,0005.10,0004.55
2023-08-09 12:51:00,SystemResetWarning,0831.1,5.00,000.00,029.7,027.7,000.0,038.4,031.2,23.7,0000.0,0008.74,0005.11,0004.55
2023-08-09 12:52:00,SystemResetWarning,0831.1,5.00,000.00,029.7,027.8,000.0,038.4,031.2,23.7,0000.0,0008.84,0005.11,0004.55
2023-08-09 12:53:00,SystemResetWarning,0831.2,5.01,000.00,029.7,028.0,000.0,038.4,031.2,23.7,0000.0,0008.98,0005.07,0004.55
2023-08-09 12:54:00,SystemResetWarning,0831.1,5.01,000.00,029.7,028.1,000.0,038.4,031.2,23.6,0000.0,0008.76,0005.04,0004.54
2023-08-09 12:55:00,SystemResetWarning,0831.2,4.99,000.00,029.7,028.1,000.0,038.4,031.3,23.7,0000.0,0008.72,0005.04,0004.53
2023-08-09 12:56:00,SystemResetWarning,0831.1,5.00,000.00,029.7,028.2,000.0,038.4,031.3,23.8,0000.0,0008.92,0005.04,0004.54
2023-08-09 12:57:00,SystemResetWarning,0831.1,5.00,000.00,029.7,028.3,000.0,038.4,031.3,23.7,0000.0,0009.09,0005.04,0004.55
2023-08-09 12:58:00,SystemResetWarning,0831.1,5.00,000.00,029.7,028.3,000.0,038.4,031.3,23.8,0000.0,0009.11,0005.06,0004.56
2023-08-09 12:59:00,SystemResetWarning,0831.1,5.00,000.00,029.8,028.4,000.0,038.4,031.3,23.7,0000.0,0009.28,0005.04,0004.55
